timestamp,wind_dir_avg,wind_spd_avg,wind_spd_max_dir,wind_spd_gust,battery_voltage,lat,long
2022-03-11 00:04:01+00:00,247.0,9.43,249.0,10.83,12.49,47.59359,-54.27349
2022-03-11 00:14:01+00:00,250.0,8.68,260.0,10.54,12.41,47.59359,-54.27349
2022-03-11 00:24:01+00:00,252.0,9.11,249.0,11.27,12.41,47.59359,-54.27349
2022-03-11 00:34:01+00:00,250.0,9.44,245.0,11.0,12.41,47.59359,-54.27349
2022-03-11 00:44:01+00:00,262.0,8.99,264.0,10.56,12.41,47.59359,-54.27349
2022-03-11 00:54:01+00:00,263.0,8.22,262.0,10.02,12.41,47.59359,-54.27349
2022-03-11 01:04:01+00:00,265.0,8.97,261.0,10.43,12.41,47.59359,-54.27349
2022-03-11 01:14:01+00:00,261.0,9.41,261.0,10.52,12.41,47.59359,-54.27349
2022-03-11 01:24:01+00:00,260.0,9.1,262.0,10.4,12.41,47.59359,-54.27349
2022-03-11 01:34:01+00:00,266.0,9.48,265.0,10.68,12.41,47.59359,-54.27349
2022-03-11 01:44:01+00:00,274.0,8.52,277.0,10.63,12.41,47.59359,-54.27349
2022-03-11 01:54:01+00:00,270.0,8.95,272.0,10.35,12.41,47.59359,-54.27349
2022-03-11 02:04:01+00:00,265.0,8.5,267.0,10.34,12.41,47.59359,-54.27349
2022-03-11 02:14:01+00:00,260.0,8.63,265.0,10.54,12.33,47.59359,-54.27349
2022-03-11 02:24:01+00:00,263.0,9.03,261.0,10.48,12.33,47.59359,-54.27349
2022-03-11 02:34:01+00:00,265.0,9.76,266.0,10.57,12.33,47.59359,-54.27349
2022-03-11 02:44:01+00:00,262.0,9.48,259.0,10.73,12.33,47.59359,-54.27349
2022-03-11 02:54:01+00:00,244.0,7.94,251.0,10.12,12.33,47.59359,-54.27349
2022-03-11 03:04:01+00:00,248.0,10.02,249.0,10.94,12.33,47.59359,-54.27349
2022-03-11 03:14:01+00:00,249.0,9.83,249.0,10.58,12.33,47.59359,-54.27349
2022-03-11 03:24:01+00:00,248.0,10.09,250.0,10.87,12.33,47.59359,-54.27349
2022-03-11 03:34:01+00:00,245.0,9.69,250.0,10.74,12.33,47.59359,-54.27349
2022-03-11 03:44:01+00:00,245.0,9.63,249.0,10.87,12.33,47.59359,-54.27349
2022-03-11 03:54:01+00:00,245.0,10.0,248.0,10.95,12.33,47.59359,-54.27349
2022-03-11 04:04:01+00:00,247.0,10.01,252.0,10.9,12.33,47.59359,-54.27349
2022-03-11 04:14:00+00:00,247.0,10.07,248.0,11.19,12.25,47.59359,-54.27349
2022-03-11 04:24:00+00:00,253.0,9.33,256.0,10.6,12.25,47.59359,-54.27349
2022-03-11 04:34:00+00:00,252.0,9.51,250.0,10.72,12.25,47.59359,-54.27349
2022-03-11 04:44:00+00:00,246.0,8.53,252.0,10.35,12.25,47.59359,-54.27349
2022-03-11 04:54:00+00:00,253.0,9.28,254.0,10.75,12.25,47.59359,-54.27349
2022-03-11 05:04:00+00:00,254.0,9.35,260.0,10.65,12.25,47.59359,-54.27349
2022-03-11 05:14:01+00:00,254.0,9.89,251.0,10.67,12.25,47.59359,-54.27349
2022-03-11 05:24:01+00:00,251.0,9.18,251.0,10.31,12.25,47.59359,-54.27349
2022-03-11 05:34:01+00:00,247.0,9.82,247.0,11.0,12.25,47.59359,-54.27349
2022-03-11 05:44:01+00:00,251.0,10.17,254.0,11.09,12.25,47.59359,-54.27349
2022-03-11 05:54:01+00:00,248.0,9.35,248.0,10.95,12.25,47.59359,-54.27349
2022-03-11 06:04:01+00:00,245.0,9.58,246.0,11.4,12.25,47.59359,-54.27349
2022-03-11 06:14:01+00:00,241.0,8.77,244.0,10.6,12.25,47.59359,-54.27349
2022-03-11 06:24:01+00:00,244.0,10.47,243.0,11.65,12.25,47.59359,-54.27349
2022-03-11 06:34:01+00:00,244.0,10.58,242.0,11.74,12.25,47.59359,-54.27349
2022-03-11 06:44:01+00:00,245.0,9.11,249.0,10.73,12.25,47.59359,-54.27349
2022-03-11 06:54:01+00:00,242.0,9.91,243.0,11.68,12.25,47.59359,-54.27349
2022-03-11 07:04:01+00:00,248.0,10.31,247.0,11.6,12.25,47.59359,-54.27349
2022-03-11 07:14:00+00:00,246.0,9.26,253.0,11.4,12.25,47.59359,-54.27349
2022-03-11 07:24:00+00:00,247.0,9.08,252.0,11.4,12.25,47.59359,-54.27349
2022-03-11 07:34:00+00:00,255.0,9.54,255.0,11.37,12.25,47.59359,-54.27349
2022-03-11 07:44:00+00:00,254.0,9.95,256.0,11.35,12.25,47.59359,-54.27349
2022-03-11 07:54:00+00:00,248.0,9.18,254.0,11.24,12.25,47.59359,-54.27349
2022-03-11 08:04:00+00:00,249.0,10.23,252.0,11.01,12.25,47.59359,-54.27349
2022-03-11 08:14:01+00:00,246.0,10.01,247.0,11.36,12.17,47.59359,-54.27349
2022-03-11 08:24:01+00:00,250.0,10.33,248.0,11.3,12.17,47.59359,-54.27349
2022-03-11 08:34:01+00:00,252.0,10.25,248.0,11.62,12.17,47.59359,-54.27349
2022-03-11 08:44:01+00:00,248.0,10.39,250.0,11.22,12.17,47.59359,-54.27349
2022-03-11 08:54:01+00:00,246.0,10.37,248.0,11.21,12.17,47.59359,-54.27349
2022-03-11 09:04:01+00:00,250.0,10.01,254.0,11.19,12.17,47.59359,-54.27349
2022-03-11 09:14:01+00:00,250.0,10.57,251.0,11.45,12.17,47.59359,-54.27349
2022-03-11 09:24:01+00:00,250.0,10.44,250.0,11.49,12.17,47.59359,-54.27349
2022-03-11 09:34:01+00:00,251.0,10.16,251.0,11.35,12.17,47.59359,-54.27349
2022-03-11 09:44:01+00:00,255.0,10.11,255.0,11.38,12.17,47.59359,-54.27349
2022-03-11 09:54:01+00:00,254.0,10.41,252.0,11.26,12.17,47.59359,-54.27349
2022-03-11 10:04:01+00:00,250.0,10.43,249.0,11.21,12.17,47.59359,-54.27349
2022-03-11 10:14:00+00:00,251.0,9.61,253.0,10.5,12.17,47.59359,-54.27349
2022-03-11 10:24:00+00:00,253.0,9.25,253.0,10.05,12.17,47.59359,-54.27349
2022-03-11 10:34:00+00:00,244.0,9.03,249.0,10.71,12.17,47.59359,-54.27349
2022-03-11 10:44:00+00:00,248.0,10.76,250.0,11.32,12.17,47.59359,-54.27349
2022-03-11 10:54:00+00:00,247.0,10.52,249.0,11.35,12.17,47.59359,-54.27349
2022-03-11 11:04:00+00:00,249.0,10.15,250.0,11.45,12.17,47.59359,-54.27349
2022-03-11 11:14:00+00:00,250.0,10.02,251.0,10.97,13.76,47.59359,-54.27349
2022-03-11 11:24:00+00:00,250.0,10.57,248.0,11.08,13.76,47.59359,-54.27349
2022-03-11 11:34:00+00:00,253.0,9.77,253.0,10.56,13.76,47.59359,-54.27349
2022-03-11 11:44:00+00:00,256.0,9.3,259.0,10.99,13.76,47.59359,-54.27349
2022-03-11 11:54:00+00:00,257.0,9.73,255.0,10.42,13.76,47.59359,-54.27349
2022-03-11 12:04:00+00:00,260.0,10.15,264.0,13.58,13.76,47.59359,-54.27349
2022-03-11 12:14:00+00:00,264.0,9.5,260.0,10.85,14.4,47.59359,-54.27349
2022-03-11 12:24:00+00:00,264.0,9.28,265.0,10.79,14.4,47.59359,-54.27349
2022-03-11 12:34:00+00:00,267.0,9.07,264.0,10.84,14.4,47.59359,-54.27349
2022-03-11 12:44:00+00:00,271.0,9.76,271.0,10.48,14.4,47.59359,-54.27349
2022-03-11 12:54:00+00:00,282.0,7.95,287.0,10.35,14.4,47.59359,-54.27349
2022-03-11 13:04:00+00:00,283.0,9.52,285.0,10.88,14.4,47.59359,-54.27349
2022-03-11 13:14:00+00:00,273.0,9.89,274.0,10.72,13.84,47.59359,-54.27349
2022-03-11 13:24:00+00:00,282.0,9.96,282.0,10.86,13.84,47.59359,-54.27349
2022-03-11 13:34:00+00:00,281.0,8.41,279.0,10.26,13.84,47.59359,-54.27349
2022-03-11 13:44:00+00:00,268.0,10.15,271.0,10.71,13.84,47.59359,-54.27349
2022-03-11 13:54:00+00:00,267.0,9.15,272.0,9.9,13.84,47.59359,-54.27349
2022-03-11 14:04:00+00:00,272.0,8.72,273.0,9.46,13.84,47.59359,-54.27349
2022-03-11 14:14:00+00:00,276.0,10.4,274.0,11.03,14.32,47.59359,-54.27349
2022-03-11 14:24:00+00:00,269.0,9.15,269.0,10.1,14.32,47.59359,-54.27349
2022-03-11 14:34:00+00:00,270.0,8.93,270.0,11.09,14.32,47.59359,-54.27349
2022-03-11 14:44:00+00:00,263.0,8.65,271.0,10.21,14.32,47.59359,-54.27349
2022-03-11 14:54:00+00:00,273.0,8.97,272.0,11.12,14.32,47.59359,-54.27349
2022-03-11 15:04:00+00:00,280.0,8.89,284.0,9.84,14.32,47.59359,-54.27349
2022-03-11 15:14:01+00:00,273.0,8.31,278.0,9.86,13.68,47.59359,-54.27349
2022-03-11 15:24:01+00:00,274.0,9.54,270.0,10.98,13.68,47.59359,-54.27349
2022-03-11 15:34:01+00:00,273.0,8.46,272.0,9.51,13.68,47.59359,-54.27349
2022-03-11 15:44:01+00:00,276.0,8.93,271.0,11.46,13.68,47.59359,-54.27349
2022-03-11 15:54:01+00:00,280.0,8.44,282.0,11.32,13.68,47.59359,-54.27349
2022-03-11 16:04:01+00:00,284.0,9.89,287.0,11.38,13.68,47.59359,-54.27349
2022-03-11 16:14:00+00:00,277.0,9.15,283.0,10.55,13.6,47.59359,-54.27349
2022-03-11 16:24:00+00:00,286.0,9.99,284.0,12.28,13.6,47.59359,-54.27349
2022-03-11 16:34:00+00:00,281.0,9.91,282.0,13.23,13.6,47.59359,-54.27349
2022-03-11 16:44:00+00:00,272.0,11.9,271.0,17.46,13.6,47.59359,-54.27349
2022-03-11 16:54:00+00:00,272.0,9.18,266.0,11.69,13.6,47.59359,-54.27349
2022-03-11 17:04:00+00:00,270.0,9.97,270.0,11.92,13.6,47.59359,-54.27349
2022-03-11 17:14:00+00:00,271.0,8.93,273.0,9.74,13.68,47.59359,-54.27349
2022-03-11 17:24:00+00:00,281.0,9.4,284.0,11.7,13.68,47.59359,-54.27349
2022-03-11 17:34:00+00:00,278.0,8.88,271.0,11.45,13.68,47.59359,-54.27349
2022-03-11 17:44:00+00:00,274.0,8.63,282.0,9.65,13.68,47.59359,-54.27349
2022-03-11 17:54:00+00:00,271.0,10.09,268.0,12.77,13.68,47.59359,-54.27349
2022-03-11 18:04:00+00:00,268.0,10.31,265.0,16.21,13.68,47.59359,-54.27349
2022-03-11 18:14:00+00:00,266.0,9.6,263.0,11.67,13.68,47.59359,-54.27349
2022-03-11 18:24:00+00:00,271.0,8.72,268.0,10.54,13.68,47.59359,-54.27349
2022-03-11 18:34:00+00:00,295.0,9.66,297.0,10.58,13.68,47.59359,-54.27349
2022-03-11 18:44:00+00:00,262.0,8.84,256.0,10.96,13.68,47.59359,-54.27349
2022-03-11 18:54:00+00:00,267.0,8.41,266.0,9.78,13.68,47.59359,-54.27349
2022-03-11 19:04:00+00:00,269.0,8.27,268.0,9.43,13.68,47.59359,-54.27349
2022-03-11 19:14:01+00:00,268.0,8.69,265.0,11.0,13.84,47.59359,-54.27349
2022-03-11 19:24:01+00:00,264.0,8.24,268.0,10.42,13.84,47.59359,-54.27349
2022-03-11 19:34:01+00:00,264.0,8.58,265.0,9.7,13.84,47.59359,-54.27349
2022-03-11 19:44:01+00:00,273.0,11.15,272.0,12.58,13.84,47.59359,-54.27349
2022-03-11 19:54:01+00:00,275.0,11.41,270.0,16.7,13.84,47.59359,-54.27349
2022-03-11 20:04:01+00:00,270.0,9.58,268.0,11.42,13.84,47.59359,-54.27349
2022-03-11 20:14:01+00:00,270.0,9.3,271.0,11.52,13.84,47.59359,-54.27349
2022-03-11 20:24:01+00:00,267.0,8.9,269.0,10.53,13.84,47.59359,-54.27349
2022-03-11 20:34:01+00:00,268.0,8.05,270.0,9.9,13.84,47.59359,-54.27349
2022-03-11 20:44:01+00:00,262.0,8.22,265.0,10.58,13.84,47.59359,-54.27349
2022-03-11 20:54:01+00:00,262.0,8.33,266.0,10.71,13.84,47.59359,-54.27349
2022-03-11 21:04:01+00:00,260.0,8.23,258.0,10.71,13.84,47.59359,-54.27349
2022-03-11 21:14:01+00:00,267.0,8.25,277.0,10.34,13.44,47.59359,-54.27349
2022-03-11 21:24:01+00:00,269.0,8.64,270.0,10.72,13.44,47.59359,-54.27349
2022-03-11 21:34:01+00:00,267.0,8.73,268.0,10.81,13.44,47.59359,-54.27349
2022-03-11 21:44:01+00:00,264.0,8.43,266.0,9.33,13.44,47.59359,-54.27349
2022-03-11 21:54:01+00:00,269.0,8.76,267.0,10.62,13.44,47.59359,-54.27349
2022-03-11 22:04:01+00:00,272.0,8.18,279.0,9.42,13.44,47.59359,-54.27349
2022-03-11 22:14:01+00:00,272.0,9.79,274.0,11.05,12.73,47.59359,-54.27349
2022-03-11 22:24:01+00:00,269.0,8.77,272.0,11.01,12.73,47.59359,-54.27349
2022-03-11 22:34:01+00:00,271.0,9.74,272.0,11.06,12.73,47.59359,-54.27349
2022-03-11 22:44:01+00:00,269.0,10.08,267.0,10.98,12.73,47.59359,-54.27349
2022-03-11 22:54:01+00:00,271.0,9.62,275.0,10.35,12.73,47.59359,-54.27349
2022-03-11 23:04:01+00:00,270.0,8.73,271.0,11.17,12.73,47.59359,-54.27349
2022-03-11 23:14:00+00:00,275.0,10.14,277.0,11.22,12.49,47.59359,-54.27349
2022-03-11 23:24:00+00:00,272.0,9.12,270.0,11.0,12.49,47.59359,-54.27349
2022-03-11 23:34:00+00:00,274.0,9.49,276.0,10.95,12.49,47.59359,-54.27349
2022-03-11 23:44:00+00:00,274.0,9.47,271.0,10.83,12.49,47.59359,-54.27349
2022-03-11 23:54:00+00:00,273.0,9.55,272.0,11.14,12.49,47.59359,-54.27349
